This is the latest recevied weather packets stored in our database for station/object KE0QIB. If no packets are shown the sender has not sent any weather packets the latest 10 day(s).
| Time | Temp. | Humidity | Pressure | Rain* | Wind** | Luminosity | Snow |
|---|---|---|---|---|---|---|---|
| 1777909916 | 10° C | 53% | 993.8 hPa | 0 mm | - | - | - |
| 1777909616 | 10° C | 53% | 993.8 hPa | 0 mm | - | - | - |
| 1777909316 | 10° C | 55% | 993.8 hPa | 0 mm | - | - | - |
| 1777909016 | 10° C | 54% | 994 hPa | 0 mm | - | - | - |
| 1777908716 | 10° C | 53% | 994 hPa | 0 mm | - | - | - |
| 1777908416 | 10° C | 54% | 994 hPa | 0 mm | - | - | - |
| 1777908116 | 10° C | 53% | 994 hPa | 0 mm | - | - | - |
| 1777907816 | 10° C | 53% | 994 hPa | 0 mm | - | - | - |
| 1777907516 | 10° C | 55% | 994 hPa | 0 mm | - | - | - |
| 1777907216 | 10° C | 52% | 994 hPa | 0 mm | - | - | - |
| 1777906916 | 10.56° C | 52% | 994 hPa | 0 mm | - | - | - |
| 1777906616 | 10.56° C | 53% | 994 hPa | 0 mm | - | - | - |
| 1777906316 | 10.56° C | 50% | 994 hPa | 0 mm | - | - | - |
| 1777906016 | 10.56° C | 51% | 994 hPa | 0 mm | - | - | - |
| 1777905716 | 10.56° C | 52% | 994 hPa | 0 mm | - | - | - |
| 1777905416 | 10° C | 54% | 994.3 hPa | 0 mm | - | - | - |
| 1777905116 | 10° C | 55% | 994.3 hPa | 0 mm | - | - | - |
| 1777904816 | 10° C | 55% | 994.3 hPa | 0 mm | - | - | - |
| 1777904516 | 9.44° C | 57% | 994.7 hPa | 0 mm | - | - | - |
| 1777904216 | 9.44° C | 56% | 994.7 hPa | 0 mm | - | - | - |
| 1777903916 | 9.44° C | 57% | 994.7 hPa | 0 mm | - | - | - |
| 1777903616 | 9.44° C | 59% | 994.6 hPa | 0 mm | - | - | - |
| 1777903316 | 9.44° C | 61% | 994.6 hPa | 0 mm | - | - | - |
| 1777903016 | 9.44° C | 59% | 994.6 hPa | 0 mm | - | - | - |
| 1777902716 | 9.44° C | 59% | 994.3 hPa | 0 mm | - | - | - |
* Rain latest hour (hover to see other rain measurements)
** Current wind speed in m/s (hover to see current wind gust speed)